Regional Weather Roundup
Issued by NWS

Home | Current Version | Previous Version | Graphics & Text | Print | Product List | Glossary On
Versions: 1 2 3 4 5 6 7 8 9 10 11 12 13 14 15 16 17 18 19 20 21 22 23 24 25 26 27 28 29 30 31 32 33 34 35 36 37 38 39 40 41 42 43 44 45 46 47 48 49 50
000
ASUS43 KFSD 090502
RWRSD

WEATHER ROUNDUP FOR SOUTH DAKOTA
NATIONAL WEATHER SERVICE SIOUX FALLS SD
1100 PM CST MON FEB 08 2016

NOTE: "FAIR" INDICATES FEW OR NO CLOUDS BELOW 12,000 FEET WITH NO
SIGNIFICANT WEATHER AND/OR OBSTRUCTIONS TO VISIBILITY.


SDZ001>005-009-010-012>017-090600-
NORTHWEST AND NORTH CENTRAL SOUTH DAKOTA

CITY           SKY/WX    TMP DP  RH WIND       PRES   REMARKS
BUFFALO          N/A     27  14  58 W6        30.16S WCI  20
FAITH            N/A     31  13  47 N12       30.23R WCI  22
MOBRIDGE       PTCLDY    26  16  65 N14       30.21S WCI  14
$$

SDZ012>016-024>037-041>051-057-063-072>074-090600-
SOUTHWEST AND SOUTH CENTRAL SOUTH DAKOTA

CITY           SKY/WX    TMP DP  RH WIND       PRES   REMARKS
RAPID CTY ARPT CLOUDY    32  19  58 N6        30.23S WCI  26
PIERRE         CLEAR     26  18  71 NW9       30.22S WCI  17
CUSTER         CLOUDY    36  21  54 N13G22    30.18F
ELLSWORTH AFB  CLOUDY    34  18  53 CALM      30.21F
PHILIP         CLOUDY    34  17  50 N13       30.24S WCI  25
PINE RIDGE     CLOUDY    30  21  69 S5        30.23F WCI  25
WINNER         CLOUDY    30  20  66 NW9       30.20S WCI  22
$$

SDZ004>011-016>023-039-040-090600-
NORTHEAST SOUTH DAKOTA

CITY           SKY/WX    TMP DP  RH WIND       PRES   REMARKS
ABERDEEN       CLEAR     17  11  77 N8        30.23R WCI   7
WATERTOWN      MOCLDY    10   3  73 N21       30.12S WCI  -9
BROOKINGS      LGT SNOW  11   7  84 N18       30.11R FOG     WCI  -7
SISSETON         N/A      8   4  83 N21       30.19S WCI -12
$$

SDZ017-020-022-023-036>040-048>070-090600-
SOUTHEAST SOUTH DAKOTA

CITY           SKY/WX    TMP DP  RH WIND       PRES   REMARKS
SIOUX FALLS    CLEAR     17   8  67 N24G33    30.10F WCI  -1
HURON          CLEAR     20  12  71 N15       30.20R WCI   6
MITCHELL       CLEAR     22  13  68 N13       30.20R WCI  10
YANKTON        CLEAR     23  12  63 NW20      30.15F WCI   8
$$

ABBREVIATIONS USED IN REMARKS
   TC - TEMPERATURE IN CELSIUS
  WCI - WIND CHILL INDEX
   HX - HEAT INDEX
  VSB - VISIBILITY




USA.gov is the U.S. government's official web portal to all federal, state and local government web resources and services.